CAPE
0 0 0 35 114 60 216 378 321 294 277 240 541 469 508 528 3 17 56 0 156 161 375 539 720 763 651 306 324 727 979 895
0 0 0 1 15 2 119 337 406 473 518 459 868 760 679 277 16 97 21 4 364 278 433 473 799 819 717 394 395 919 982 888
0 0 0 0 0 0 8 247 270 431 589 847 1201 914 877 80 14 58 10 68 322 390 510 483 667 767 617 363 508 948 916 735
0 0 0 0 0 0 0 37 106 288 229 1258 1215 992 720 104 78 56 34 158 141 469 538 520 460 579 502 457 647 804 760 637
0 0 0 0 0 0 3 7 110 225 183 1375 1130 1067 647 229 112 29 42 102 111 142 266 707 641 583 512 541 673 715 679 503
0 0 0 0 0 0 0 5 440 407 149 847 1252 1038 713 384 134 47 39 96 78 80 72 44 325 708 776 653 646 595 489 246
0 0 0 0 0 0 0 4 58 138 19 1130 1285 1066 763 599 287 82 52 84 47 26 27 0 0 279 730 722 696 528 348 183
0 0 0 0 0 0 0 13 0 17 56 899 1029 890 635 630 560 151 72 58 31 0 2 0 0 143 222 251 211 112 67 99
0 0 0 0 0 0 0 0 0 0 0 832 653 850 457 432 728 484 133 40 20 6 0 3 0 141 101 98 168 164 168 275
0 0 0 0 0 0 0 0 0 0 0 46 686 676 743 699 854 731 268 88 22 0 24 15 6 55 41 67 170 181 246 448
0 0 0 0 0 0 0 0 0 0 0 0 253 413 762 924 987 870 420 140 47 17 52 32 71 50 41 57 146 188 265 436
0 0 0 0 0 0 0 0 0 0 0 0 14 392 869 1220 1040 988 599 306 168 32 153 212 240 183 92 77 161 225 287 424
0 0 0 0 0 0 0 0 83 22 98 137 557 562 1080 1194 1353 1185 598 383 281 65 199 334 316 359 227 182 172 171 264 365
0 0 0 0 0 0 12 0 138 215 290 396 599 1135 1436 1192 1238 991 745 508 331 231 171 441 408 462 339 263 208 250 256 339
0 0 0 0 0 0 2 63 193 335 448 765 857 849 999 1148 1003 1299 1078 891 757 470 242 396 499 543 546 387 403 295 344 403
0 0 0 0 9 0 0 10 107 235 400 363 164 63 144 359 706 1146 1214 1190 1052 739 596 561 533 611 376 437 418 370 317 345
1 0 0 0 8 0 0 0 0 30 68 58 22 24 46 129 387 830 1245 1311 1338 951 867 498 615 500 433 523 413 442 373 421
6 0 0 25 26 0 0 0 0 0 0 0 0 0 0 67 139 282 747 1219 1415 1265 1093 725 527 651 530 405 366 374 332 473
0 2 0 0 91 25 0 0 0 0 0 0 0 0 0 27 120 285 834 1331 1183 1337 1256 1099 840 684 613 452 402 339 424 625
0 0 0 0 3 149 0 0 0 0 0 0 0 0 0 0 90 74 202 888 770 1058 1086 1060 997 747 649 430 368 367 418 517
CIN
-0 -0 -1 -4 -33 -50 -8 -13 -38 -30 -43 -18 -6 -67 -76 -105 -195 -209 -279 -0 -262 -244 -121 -35 -8 -8 -14 -44 -39 -10 -0 -1
-0 -0 -0 -1 -88 -1 -23 -2 -33 -45 -3 -35 -53 -44 -47 -149 -176 -183 -250 -309 -219 -197 -99 -37 -5 -4 -10 -28 -32 -4 -0 -0
-0 -0 -0 -0 -1 -0 -12 -15 -3 -45 -5 -3 -54 -58 -61 -160 -148 -173 -213 -184 -179 -145 -82 -30 -7 -3 -12 -28 -23 -3 -2 -5
-0 -0 -0 -0 -0 -0 -0 -57 -31 -41 -27 -11 -73 -59 -72 -116 -107 -124 -162 -136 -188 -100 -65 -35 -18 -5 -18 -22 -16 -12 -12 -16
-0 -0 -0 -0 -0 -0 -3 -87 -34 -33 -13 -18 -53 -70 -86 -88 -107 -110 -133 -142 -187 -163 -114 -2 -6 -7 -17 -17 -13 -14 -16 -30
-0 -0 -0 -0 -0 -0 -0 -3 -26 -20 -6 -5 -30 -77 -82 -95 -105 -142 -118 -128 -213 -177 -179 -131 -42 -1 -0 -8 -10 -15 -30 -58
-0 -0 -0 -0 -0 -0 -0 -41 -73 -42 -70 -34 -29 -63 -33 -18 -52 -127 -116 -105 -175 -184 -173 -0 -0 -37 -1 -0 -0 -17 -38 -75
-0 -0 -0 -0 -0 -0 -0 -148 -0 -108 -11 -102 -29 -56 -21 -7 -9 -64 -91 -80 -124 -0 -40 -0 -0 -53 -11 -7 -20 -42 -50 -80
-0 -0 -0 -0 -0 -0 -0 -0 -0 -0 -0 -31 -54 -64 -100 -32 -3 -31 -73 -76 -109 -157 -0 -67 -0 -63 -40 -6 -2 -4 -10 -22
-0 -0 -0 -0 -0 -0 -0 -0 -0 -0 -0 -63 -74 -62 -80 -71 -1 -3 -42 -90 -109 -0 -127 -73 -2 -94 -78 -35 -2 -1 -2 -0
-0 -0 -0 -0 -0 -0 -0 -0 -0 -0 -0 -0 -102 -100 -60 -60 -2 -3 -30 -79 -121 -170 -122 -79 -47 -71 -61 -44 -8 -2 -2 -1
-0 -0 -0 -0 -0 -0 -0 -0 -0 -0 -0 -0 -185 -74 -46 -19 -23 -10 -29 -58 -75 -136 -120 -76 -47 -38 -44 -38 -11 -2 -1 -2
-0 -0 -0 -0 -0 -0 -0 -0 -206 -181 -163 -137 -24 -10 -12 -24 -4 -2 -26 -48 -63 -132 -89 -47 -39 -20 -13 -16 -1 -4 -3 -0
-0 -0 -0 -0 -0 -0 -157 -0 -150 -110 -82 -45 -83 -1 -9 -76 -8 -17 -25 -43 -70 -67 -87 -39 -16 -20 -23 -8 -8 -4 -7 -2
-0 -0 -0 -0 -0 -0 -37 -134 -105 -77 -38 -2 -25 -100 -75 -54 -42 -6 -16 -22 -34 -52 -86 -46 -23 -6 -6 -14 -13 -2 -2 -1
-0 -0 -0 -0 -6 -0 -0 -89 -116 -100 -72 -132 -289 -406 -331 -239 -165 -45 -20 -17 -39 -68 -70 -49 -48 -10 -18 -2 -4 -5 -5 -2
-1 -0 -0 -0 -6 -0 -0 -0 -0 -172 -201 -276 -359 -375 -352 -286 -196 -124 -32 -25 -28 -66 -59 -73 -45 -52 -48 -7 -7 -3 -3 -1
-3 -0 -0 -4 -4 -0 -0 -0 -0 -0 -0 -0 -0 -0 -0 -326 -276 -256 -132 -36 -6 -12 -19 -36 -35 -6 -18 -17 -5 -1 -2 -2
-0 -1 -0 -0 -7 -35 -0 -0 -0 -0 -0 -0 -0 -0 -0 -259 -277 -230 -54 -3 -10 -12 -6 -4 -4 -1 -0 -7 -3 -3 -6 -4
-0 -0 -0 -0 -8 -15 -0 -0 -0 -0 -0 -0 -0 -0 -0 -0 -259 -304 -253 -37 -70 -4 -2 -6 -11 -7 -2 -5 -4 -19 -10 -10
Wind_Speed
8 22 32 23 12 16 14 12 13 15 19 18 17 16 11 11 11 12 15 15 13 14 13 14 15 16 17 16 14 13 10 8
28 33 15 22 12 13 11 12 13 17 16 16 18 16 13 9 9 10 11 13 13 13 12 13 14 15 14 14 14 13 11 7
13 10 33 9 12 11 18 12 14 16 17 16 16 16 14 10 9 10 9 12 12 12 11 10 11 12 12 12 12 11 8 7
19 17 16 15 11 8 12 13 15 16 19 14 14 15 15 16 15 10 8 9 10 9 7 7 8 10 10 11 11 11 7 4
31 29 17 15 12 17 9 11 10 16 20 12 12 13 14 15 16 14 8 5 9 8 6 4 6 7 9 10 11 10 7 3
28 30 26 17 12 19 18 20 13 15 15 13 8 11 13 15 14 14 13 8 9 8 6 7 5 5 7 7 8 7 5 1
25 27 21 19 14 14 12 22 14 15 20 14 8 9 9 11 11 12 9 9 8 8 7 7 5 6 5 6 4 2 1 2
26 23 20 20 19 17 15 18 18 13 15 13 7 8 6 5 6 8 9 10 7 7 6 7 5 7 10 10 7 4 2 2
25 23 24 25 24 18 18 17 21 22 25 8 9 7 11 4 1 2 7 9 9 6 6 7 7 7 12 11 9 4 3 5
32 24 25 23 24 22 21 23 26 27 25 15 10 9 11 10 8 4 5 6 10 5 6 7 4 5 11 12 14 10 5 7
23 22 20 21 20 21 19 18 22 25 25 18 11 12 9 8 5 4 6 6 7 7 5 7 7 4 7 11 10 12 9 5
17 16 14 15 17 16 13 21 22 21 15 13 16 8 10 5 3 4 4 5 9 6 6 8 8 7 6 6 6 6 5 6
20 18 17 16 19 17 19 19 18 17 14 14 14 10 7 12 5 2 3 3 6 6 7 9 9 9 10 8 9 7 8 6
13 15 16 13 14 14 17 17 15 16 12 10 14 14 9 10 15 8 7 6 5 6 7 8 11 12 11 12 10 9 9 7
12 17 13 11 12 16 16 15 15 14 13 11 12 17 19 13 13 15 9 9 9 8 8 9 12 13 16 15 14 12 10 9
20 12 12 11 10 15 16 14 14 15 13 16 19 21 23 23 21 14 12 10 11 10 11 11 11 14 15 20 15 15 13 12
15 16 20 17 14 15 14 13 13 13 15 16 17 17 20 23 24 22 20 13 11 10 11 13 14 14 17 19 19 17 17 16
17 18 19 12 12 12 12 13 13 13 14 15 16 18 20 22 23 25 24 23 14 14 11 13 14 15 18 22 23 22 19 19
25 16 19 23 14 11 9 10 12 13 13 15 17 19 20 21 22 21 20 23 24 16 15 13 15 16 18 21 26 26 26 24
23 25 26 11 25 9 6 10 11 12 14 15 17 19 21 22 22 22 22 22 22 22 23 20 18 21 22 22 23 26 27 27
Wind_Direction
307 288 243 297 324 311 332 348 346 338 326 339 349 352 20 15 89 91 93 100 95 101 99 102 104 109 109 104 98 92 87 76
275 235 300 290 332 338 337 340 339 327 333 350 338 5 9 54 87 88 93 99 100 103 101 103 105 108 108 105 102 100 95 81
290 295 251 322 334 327 309 345 330 320 327 335 349 6 32 67 97 93 92 94 101 104 101 102 105 107 108 106 106 104 96 84
282 288 297 299 318 346 325 327 328 325 310 332 8 33 63 94 105 99 91 86 102 104 103 102 105 109 110 110 111 108 98 82
270 277 293 296 309 299 333 333 334 312 305 345 350 33 69 95 108 109 95 85 106 111 111 106 109 111 114 116 115 111 101 86
276 274 284 302 302 295 301 297 321 315 331 346 13 49 72 96 112 114 112 100 113 119 123 124 117 121 121 121 118 113 105 106
277 278 287 297 300 305 310 285 314 304 297 325 7 41 59 90 108 121 117 118 121 129 131 134 130 133 134 130 127 131 145 257
273 288 292 296 298 300 301 302 299 315 311 324 349 344 0 78 103 126 129 131 132 141 148 140 138 132 136 136 136 143 203 231
281 285 285 288 289 299 295 306 287 294 288 332 317 317 315 327 158 181 144 139 139 151 158 156 142 137 142 142 142 158 229 254
266 288 286 286 287 290 295 292 287 286 295 310 321 310 311 310 291 200 180 158 141 164 168 176 179 161 150 149 150 148 173 254
287 289 293 289 291 292 296 312 306 300 290 299 304 308 319 332 295 233 177 172 154 159 200 218 239 212 172 162 160 156 153 180
297 299 305 301 299 299 316 311 307 308 306 312 297 307 306 346 107 166 174 174 156 175 209 228 237 245 214 206 207 215 189 177
290 294 297 304 293 294 305 314 316 314 320 309 318 314 304 291 293 217 189 176 171 179 176 227 232 248 249 242 249 224 252 249
290 304 298 304 299 308 310 312 322 318 326 328 315 310 329 295 288 280 268 254 223 197 198 218 245 243 249 255 246 250 252 239
307 305 310 293 293 310 313 315 314 319 323 333 325 317 310 309 299 286 270 270 265 248 232 217 240 250 257 256 257 254 248 249
296 318 318 298 303 319 317 316 315 314 318 316 313 308 301 300 300 290 283 272 272 259 252 249 234 252 252 261 255 256 253 251
309 322 305 305 310 319 323 326 324 322 320 323 325 323 316 302 297 299 292 281 270 261 253 250 244 238 249 252 257 255 260 262
310 313 310 313 306 321 323 325 328 327 328 329 329 329 326 322 306 292 292 294 277 273 259 243 248 251 257 258 258 261 262 263
302 315 312 302 294 303 323 333 336 336 338 337 334 331 328 329 326 317 303 299 290 277 277 260 254 256 261 263 262 261 263 269
304 303 300 281 297 250 293 323 335 335 333 332 333 335 333 330 326 322 314 315 310 298 287 280 268 265 261 254 258 260 263 265